Location: Unspecified
(53.2191°N, 0.0000°E)
Time: 07:14:23
(UTC+00:00)

CZ-6A DEB - Visible Passes

Search period start: 04 April 2026 00:00
Search period end: 14 April 2026 00:00
Orbit: 607 x 749 km, 98.8° (Epoch: 28 March)

Date Brightness Start Highest point End Pass type
(mag) Time Alt. Az. Time Alt. Az. Time Alt. Az.
4 Apr ? 19:53:47 10° ENE 19:55:01 11° NE 19:56:13 10° NNE visible
4 Apr ? 21:30:44 47° E 21:31:11 49° ENE 21:35:46 10° N visible
4 Apr ? 23:09:05 28° W 23:09:05 28° W 23:12:43 10° NW visible
5 Apr ? 20:27:34 15° E 20:29:21 18° NE 20:32:32 10° NNE visible
5 Apr ? 22:05:55 89° SE 22:05:57 90° E 22:10:43 10° NNW visible
5 Apr ? 23:44:15 15° W 23:44:15 15° W 23:46:35 10° NW visible
6 Apr ? 21:02:42 27° E 21:03:49 30° ENE 21:07:55 10° N visible
6 Apr ? 22:41:03 48° W 22:41:03 48° W 22:45:25 10° NNW visible
7 Apr ? 20:00:28 10° ENE 20:02:08 12° NE 20:03:47 10° NNE visible
7 Apr ? 21:37:50 51° E 21:38:24 54° ENE 21:42:59 10° N visible
7 Apr ? 23:16:10 25° W 23:16:10 25° W 23:19:46 10° NW visible
8 Apr ? 20:34:35 16° E 20:36:26 20° NE 20:39:45 10° N visible
8 Apr ? 22:12:55 79° SW 22:13:06 81° WSW 22:17:49 10° NNW visible
8 Apr ? 23:51:16 14° W 23:51:16 14° W 23:53:19 10° WNW visible
9 Apr ? 21:09:39 29° E 21:10:51 33° ENE 21:15:00 10° N visible
9 Apr ? 22:47:59 42° W 22:47:59 42° W 22:52:23 10° NNW visible
10 Apr ? 20:07:03 10° ENE 20:09:02 13° NE 20:11:01 10° NNE visible
10 Apr ? 21:44:41 53° ESE 21:45:23 60° ENE 21:49:57 10° N visible
10 Apr ? 23:23:01 23° W 23:23:01 23° W 23:26:34 10° NW visible
11 Apr ? 20:41:22 17° E 20:43:17 21° ENE 20:46:42 10° N visible
11 Apr ? 22:19:42 69° SW 22:20:01 73° WSW 22:24:40 10° NNW visible
11 Apr ? 23:58:02 12° W 23:58:02 12° W 23:59:39 10° WNW visible
12 Apr ? 21:16:21 30° E 21:17:38 36° ENE 21:21:49 10° N visible
12 Apr ? 22:54:41 37° WSW 22:54:47 37° W 22:59:06 10° NNW visible
13 Apr ? 20:13:29 10° E 20:15:42 13° NE 20:17:55 10° NNE visible
13 Apr ? 21:51:18 55° ESE 21:52:07 67° ENE 21:56:40 10° NNW visible
13 Apr ? 23:29:38 20° W 23:29:40 20° W 23:33:05 10° NW visible
